VOBZVOBG

Guest
Details From VOBZ - VIJAYAWADA
To VOBG - Bangalore
Flight Number -
Tags decoded
Created
Modified
Stats Distance 8,719 nm / 16,148 km
Max Altitude 0 ft / 0 m
Waypoints 3
Social Downloads 0
Likes 0
Share VATSIM

Download

Looking for another format? Having issues loading an existing format? Contact us
Advertisement - Login to hide

Notes

Requested: VOBZ TTP BIB BIA VOBG

Route

VOBZ BIB VOBG

ID Type Via Altitude Latitude Longitude Leg Dist Tot Dist Heading (true) Name
O VOBZ APT - 0 ft / 0 m 16.53043˚ 80.79685˚ - 0 nm - VIJAYAWADA
BIB VOR - 0 ft / 0 m -16.91667˚ 145.41167˚ 4319 nm 4319 nm 115° / 114° BIBOOHRA VOR
O VOBG APT - 0 ft / 0 m 12.95016˚ 77.67065˚ 4399 nm 8719 nm 290° / 292° Bangalore

Altitude Profile

Advertisement - Login to hide

Weather


0- 5 10 15 20 25 30 35+ Temperature / ° C

Clouds and Precipitation
Forecast for 2017-12-17 06:00 UTC. Updated an hour ago

Ground ~20,000 ft ~40,000 ft Winds

VOBZ

Details ICAO VOBZ (VGA)
Name VIJAYAWADA
Region India
Timezone Asia/Kolkata (UTC+5.5)
Stats Elevation 82 ft / 25 m (AMSL)
Location 16.530433° 80.796847°
Runways 1
Magnetic Variation 0.737° W

METAR

VOBZ 170430Z 06004KT 4000 HZ NSC 27/17 Q1019 NOSIG

Decode

TAF

Not found

Departure Runways

ID Width Length Bearing (true) Bearing (mag) Surface Threshold Offset Overrun Length
08 150 ft / 46 m 5,720 ft / 1,744 m 78.67° 79.41° Asphalt 984 ft / 300 m 200 ft / 61 m
26 150 ft / 46 m 5,720 ft / 1,744 m 258.68° 259.42° Asphalt 0 ft / 0 m 0 ft / 0 m

VOBG

Details ICAO VOBG
Name Bangalore
Region India
Timezone Asia/Kolkata (UTC+5.5)
Stats Elevation 2,912 ft / 888 m (AMSL)
Location 12.950157° 77.670647°
Runways 1
Magnetic Variation 1.216° W

METAR

VOBG 170430Z 09013KT 5000 HZ SCT010 21/16 Q1022

Decode

TAF

Not found

Destination Runways

ID Width Length Bearing (true) Bearing (mag) Surface Threshold Offset Overrun Length
09 200 ft / 61 m 10,786 ft / 3,288 m 84.80° 86.02° Asphalt 0 ft / 0 m 950 ft / 290 m
27 200 ft / 61 m 10,786 ft / 3,288 m 264.81° 266.03° Asphalt 0 ft / 0 m 980 ft / 299 m

Approach Navaids

Runway Type Ident Frequency Range Bearing (true) Bearing (mag) Slope Elevation
27 Localiser IBLR 110.50 MHz 18 nm / 33 km 262.49° 263.70° - 2,912 ft / 888 m (AMSL)
27 Glidescope IBLR 110.50 MHz 10 nm / 19 km 264.81° 266.02° 3.00° 2,943 ft / 897 m (AMSL)
27 DME IBLR 110.50 MHz 18 nm / 33 km - - - 2,912 ft / 888 m (AMSL)

Popular Alternatives